QPF
0.00 0.00 0.00 0.00 0.00 0.00 0.00 0.00 0.00 0.00 0.00 0.00 0.00 0.00 0.00 0.00 0.00 0.00 0.00 0.00 0.00 0.00 0.00 0.00 0.00 0.01 0.01 0.01 0.02 0.03 0.03 0.03 0.03 0.03 0.02 0.02 0.02 0.01 0.01 0.01 0.02 0.04 0.05 0.05
0.00 0.00 0.00 0.00 0.00 0.00 0.00 0.00 0.00 0.00 0.00 0.00 0.00 0.00 0.00 0.00 0.00 0.00 0.00 0.00 0.00 0.00 0.00 0.00 0.00 0.01 0.01 0.01 0.02 0.03 0.03 0.03 0.03 0.02 0.02 0.02 0.01 0.01 0.01 0.01 0.01 0.03 0.04 0.05
0.00 0.00 0.00 0.00 0.00 0.00 0.00 0.00 0.00 0.00 0.00 0.00 0.00 0.00 0.00 0.00 0.00 0.00 0.00 0.00 0.00 0.00 0.00 0.00 0.00 0.00 0.01 0.01 0.02 0.02 0.03 0.03 0.03 0.03 0.03 0.02 0.01 0.01 0.02 0.02 0.02 0.02 0.04 0.04
0.00 0.00 0.00 0.00 0.00 0.00 0.00 0.00 0.00 0.00 0.00 0.00 0.00 0.00 0.00 0.01 0.01 0.00 0.00 0.00 0.00 0.00 0.00 0.00 0.00 0.00 0.00 0.01 0.02 0.02 0.02 0.03 0.03 0.03 0.04 0.04 0.02 0.02 0.01 0.02 0.02 0.02 0.03 0.04
0.00 0.00 0.00 0.00 0.00 0.00 0.00 0.00 0.00 0.00 0.01 0.00 0.00 0.01 0.00 0.01 0.00 0.00 0.00 0.00 0.00 0.00 0.00 0.00 0.00 0.00 0.00 0.01 0.02 0.03 0.03 0.03 0.03 0.03 0.03 0.04 0.04 0.03 0.02 0.02 0.02 0.02 0.03 0.05
0.00 0.00 0.00 0.00 0.00 0.00 0.00 0.00 0.00 0.00 0.01 0.00 0.00 0.01 0.01 0.01 0.01 0.01 0.01 0.01 0.01 0.01 0.00 0.00 0.00 0.00 0.01 0.02 0.03 0.03 0.03 0.04 0.04 0.03 0.03 0.04 0.03 0.02 0.02 0.02 0.02 0.02 0.02 0.04
0.00 0.00 0.00 0.00 0.00 0.00 0.00 0.00 0.00 0.00 0.00 0.00 0.00 0.01 0.02 0.03 0.02 0.02 0.02 0.02 0.01 0.01 0.01 0.00 0.00 0.00 0.01 0.02 0.03 0.04 0.04 0.04 0.04 0.04 0.03 0.03 0.03 0.03 0.02 0.04 0.04 0.03 0.03 0.03
0.00 0.00 0.00 0.00 0.00 0.00 0.00 0.00 0.01 0.00 0.00 0.00 0.01 0.01 0.02 0.03 0.03 0.02 0.03 0.03 0.01 0.01 0.01 0.01 0.01 0.01 0.02 0.03 0.03 0.03 0.03 0.03 0.04 0.04 0.04 0.03 0.03 0.03 0.03 0.03 0.04 0.04 0.03 0.03
0.00 0.00 0.00 0.00 0.00 0.00 0.00 0.00 0.01 0.01 0.01 0.00 0.00 0.01 0.01 0.01 0.02 0.02 0.02 0.02 0.02 0.01 0.01 0.01 0.01 0.01 0.02 0.03 0.03 0.04 0.03 0.03 0.03 0.03 0.03 0.04 0.03 0.03 0.02 0.02 0.03 0.04 0.03 0.02
0.01 0.00 0.00 0.00 0.00 0.00 0.00 0.00 0.01 0.01 0.01 0.01 0.00 0.00 0.01 0.02 0.02 0.02 0.02 0.03 0.02 0.02 0.02 0.01 0.01 0.03 0.03 0.03 0.04 0.05 0.04 0.04 0.03 0.03 0.02 0.02 0.03 0.03 0.03 0.02 0.02 0.03 0.03 0.02
0.01 0.01 0.00 0.00 0.00 0.00 0.00 0.00 0.01 0.01 0.01 0.01 0.01 0.01 0.02 0.02 0.03 0.03 0.03 0.03 0.03 0.02 0.03 0.02 0.03 0.05 0.04 0.04 0.05 0.05 0.04 0.04 0.04 0.04 0.03 0.02 0.02 0.03 0.04 0.04 0.02 0.02 0.02 0.02
0.01 0.01 0.00 0.00 0.00 0.00 0.00 0.01 0.01 0.01 0.01 0.01 0.01 0.01 0.01 0.02 0.02 0.03 0.03 0.04 0.04 0.03 0.04 0.05 0.05 0.06 0.07 0.07 0.06 0.06 0.05 0.04 0.04 0.05 0.04 0.03 0.02 0.04 0.04 0.05 0.04 0.03 0.02 0.01
0.01 0.01 0.01 0.00 0.00 0.00 0.00 0.00 0.01 0.01 0.01 0.01 0.01 0.01 0.01 0.01 0.01 0.02 0.03 0.03 0.04 0.05 0.06 0.07 0.08 0.08 0.09 0.09 0.08 0.06 0.05 0.04 0.04 0.04 0.05 0.05 0.04 0.04 0.05 0.05 0.05 0.05 0.03 0.02
0.01 0.01 0.00 0.00 0.00 0.00 0.00 0.00 0.00 0.01 0.01 0.01 0.01 0.01 0.01 0.01 0.01 0.02 0.02 0.03 0.04 0.04 0.06 0.07 0.07 0.09 0.12 0.10 0.10 0.08 0.05 0.04 0.04 0.04 0.04 0.05 0.06 0.06 0.05 0.04 0.05 0.06 0.06 0.04
0.00 0.00 0.00 0.00 0.00 0.00 0.00 0.00 0.00 0.01 0.01 0.01 0.00 0.00 0.00 0.01 0.02 0.02 0.02 0.03 0.03 0.04 0.05 0.06 0.06 0.07 0.10 0.10 0.10 0.09 0.07 0.04 0.04 0.05 0.04 0.04 0.05 0.07 0.07 0.05 0.04 0.04 0.05 0.06
0.01 0.01 0.00 0.00 0.00 0.00 0.00 0.00 0.00 0.00 0.01 0.01 0.00 0.00 0.00 0.01 0.02 0.02 0.02 0.02 0.03 0.05 0.06 0.07 0.06 0.07 0.07 0.08 0.10 0.09 0.08 0.06 0.05 0.04 0.03 0.03 0.03 0.05 0.06 0.06 0.06 0.05 0.04 0.04
0.01 0.01 0.01 0.00 0.00 0.01 0.01 0.00 0.00 0.01 0.01 0.01 0.01 0.00 0.00 0.00 0.01 0.02 0.02 0.02 0.03 0.05 0.08 0.09 0.09 0.09 0.07 0.08 0.09 0.10 0.07 0.05 0.05 0.04 0.03 0.03 0.03 0.03 0.05 0.06 0.05 0.05 0.05 0.04
0.02 0.01 0.01 0.01 0.01 0.01 0.01 0.00 0.00 0.01 0.01 0.01 0.01 0.00 0.01 0.01 0.01 0.01 0.02 0.03 0.03 0.05 0.09 0.11 0.12 0.12 0.09 0.08 0.10 0.09 0.05 0.04 0.05 0.05 0.03 0.03 0.03 0.02 0.03 0.05 0.05 0.04 0.05 0.05
0.01 0.01 0.02 0.01 0.01 0.01 0.00 0.00 0.01 0.01 0.01 0.01 0.01 0.01 0.01 0.01 0.01 0.01 0.01 0.02 0.03 0.05 0.08 0.12 0.14 0.14 0.11 0.09 0.11 0.09 0.07 0.04 0.04 0.05 0.05 0.03 0.03 0.02 0.02 0.03 0.04 0.03 0.04 0.05
0.01 0.01 0.02 0.02 0.01 0.01 0.00 0.00 0.01 0.01 0.01 0.01 0.01 0.01 0.01 0.01 0.02 0.02 0.01 0.01 0.02 0.03 0.06 0.11 0.13 0.13 0.12 0.11 0.10 0.09 0.09 0.06 0.06 0.06 0.05 0.04 0.03 0.02 0.02 0.02 0.03 0.03 0.03 0.04
0.01 0.02 0.02 0.02 0.01 0.01 0.00 0.00 0.01 0.01 0.01 0.01 0.01 0.02 0.02 0.02 0.02 0.02 0.02 0.02 0.02 0.03 0.04 0.08 0.11 0.12 0.12 0.12 0.11 0.09 0.08 0.07 0.07 0.07 0.06 0.04 0.03 0.03 0.03 0.03 0.03 0.03 0.03 0.04
0.01 0.01 0.02 0.02 0.02 0.01 0.00 0.00 0.01 0.01 0.01 0.01 0.01 0.01 0.02 0.02 0.02 0.02 0.02 0.02 0.02 0.02 0.03 0.05 0.08 0.11 0.10 0.10 0.09 0.08 0.08 0.08 0.08 0.07 0.06 0.04 0.03 0.03 0.03 0.04 0.04 0.04 0.05 0.04
0.01 0.01 0.02 0.02 0.01 0.01 0.01 0.01 0.01 0.01 0.01 0.01 0.01 0.01 0.01 0.01 0.01 0.02 0.02 0.02 0.02 0.02 0.02 0.03 0.05 0.09 0.09 0.09 0.09 0.08 0.08 0.07 0.08 0.08 0.07 0.05 0.04 0.04 0.03 0.04 0.04 0.05 0.06 0.05
0.01 0.01 0.01 0.01 0.01 0.01 0.02 0.01 0.01 0.01 0.01 0.01 0.01 0.01 0.01 0.01 0.01 0.02 0.02 0.01 0.01 0.01 0.02 0.02 0.03 0.05 0.08 0.09 0.10 0.09 0.07 0.07 0.07 0.08 0.08 0.07 0.06 0.05 0.05 0.05 0.04 0.05 0.07 0.06
0.01 0.02 0.02 0.02 0.02 0.01 0.01 0.01 0.01 0.01 0.01 0.01 0.01 0.01 0.01 0.01 0.01 0.02 0.02 0.01 0.01 0.01 0.01 0.01 0.02 0.03 0.04 0.06 0.07 0.09 0.08 0.07 0.06 0.07 0.08 0.08 0.07 0.06 0.07 0.06 0.05 0.06 0.08 0.07
0.02 0.03 0.03 0.03 0.02 0.02 0.01 0.01 0.01 0.01 0.01 0.01 0.01 0.01 0.01 0.01 0.01 0.01 0.01 0.01 0.01 0.01 0.01 0.01 0.01 0.01 0.02 0.03 0.04 0.06 0.07 0.07 0.07 0.07 0.07 0.08 0.08 0.07 0.07 0.07 0.06 0.07 0.09 0.07
MSLP
1013.40 1013.39 1013.43 1013.52 1013.67 1013.88 1014.16 1014.53 1014.99 1015.55 1016.20 1016.92 1017.66 1018.37 1018.98 1019.44 1019.72 1019.81 1019.72 1019.52 1019.27 1019.03 1018.88 1018.84 1018.95 1019.18 1019.49 1019.84 1020.18 1020.48 1020.70 1020.87 1020.99 1021.09 1021.22 1021.38 1021.57 1021.79 1022.01 1022.19 1022.30 1022.32 1022.26 1022.11
1013.77 1013.76 1013.80 1013.87 1013.98 1014.14 1014.35 1014.64 1015.02 1015.51 1016.11 1016.79 1017.52 1018.26 1018.93 1019.49 1019.89 1020.11 1020.17 1020.10 1019.95 1019.79 1019.67 1019.64 1019.71 1019.89 1020.13 1020.41 1020.68 1020.92 1021.09 1021.20 1021.28 1021.36 1021.44 1021.57 1021.73 1021.93 1022.13 1022.30 1022.42 1022.46 1022.41 1022.29
1014.19 1014.22 1014.28 1014.35 1014.42 1014.51 1014.63 1014.80 1015.07 1015.45 1015.95 1016.57 1017.29 1018.05 1018.80 1019.48 1020.02 1020.40 1020.61 1020.67 1020.62 1020.53 1020.43 1020.39 1020.42 1020.53 1020.70 1020.91 1021.12 1021.30 1021.43 1021.51 1021.56 1021.60 1021.65 1021.74 1021.85 1022.00 1022.16 1022.31 1022.42 1022.47 1022.45 1022.36
1014.56 1014.67 1014.77 1014.84 1014.89 1014.91 1014.92 1014.96 1015.09 1015.33 1015.72 1016.27 1016.96 1017.76 1018.59 1019.39 1020.08 1020.63 1021.00 1021.20 1021.26 1021.21 1021.13 1021.06 1021.04 1021.08 1021.19 1021.33 1021.49 1021.64 1021.75 1021.82 1021.86 1021.87 1021.88 1021.92 1021.98 1022.07 1022.17 1022.28 1022.37 1022.42 1022.41 1022.36
1014.80 1015.00 1015.17 1015.27 1015.29 1015.24 1015.15 1015.06 1015.03 1015.13 1015.41 1015.88 1016.55 1017.38 1018.30 1019.22 1020.08 1020.80 1021.33 1021.66 1021.82 1021.83 1021.76 1021.67 1021.60 1021.59 1021.64 1021.73 1021.86 1021.99 1022.10 1022.17 1022.19 1022.19 1022.17 1022.15 1022.14 1022.17 1022.21 1022.27 1022.32 1022.36 1022.36 1022.34
1014.87 1015.19 1015.43 1015.57 1015.58 1015.47 1015.28 1015.06 1014.90 1014.87 1015.03 1015.44 1016.08 1016.94 1017.94 1018.99 1020.00 1020.88 1021.57 1022.04 1022.29 1022.37 1022.32 1022.22 1022.12 1022.07 1022.07 1022.14 1022.26 1022.38 1022.49 1022.56 1022.59 1022.56 1022.51 1022.44 1022.37 1022.32 1022.30 1022.30 1022.32 1022.33 1022.34 1022.33
1014.81 1015.23 1015.55 1015.73 1015.74 1015.59 1015.32 1015.00 1014.71 1014.56 1014.63 1014.97 1015.60 1016.48 1017.55 1018.72 1019.86 1020.88 1021.72 1022.31 1022.67 1022.81 1022.81 1022.72 1022.61 1022.54 1022.53 1022.58 1022.69 1022.81 1022.93 1023.00 1023.02 1022.98 1022.89 1022.77 1022.65 1022.54 1022.46 1022.40 1022.38 1022.37 1022.37 1022.36
1014.70 1015.20 1015.59 1015.80 1015.82 1015.64 1015.31 1014.91 1014.53 1014.28 1014.27 1014.56 1015.16 1016.06 1017.18 1018.42 1019.67 1020.82 1021.77 1022.48 1022.94 1023.16 1023.21 1023.16 1023.07 1023.00 1022.99 1023.04 1023.15 1023.27 1023.38 1023.45 1023.46 1023.39 1023.27 1023.11 1022.94 1022.78 1022.65 1022.55 1022.49 1022.46 1022.44 1022.42
1014.64 1015.20 1015.62 1015.87 1015.89 1015.69 1015.32 1014.86 1014.41 1014.10 1014.03 1014.26 1014.83 1015.72 1016.86 1018.15 1019.46 1020.69 1021.74 1022.54 1023.09 1023.40 1023.52 1023.52 1023.47 1023.43 1023.44 1023.50 1023.60 1023.72 1023.82 1023.87 1023.85 1023.76 1023.60 1023.41 1023.20 1023.00 1022.84 1022.71 1022.62 1022.57 1022.53 1022.50
1014.74 1015.31 1015.75 1016.00 1016.02 1015.81 1015.41 1014.92 1014.43 1014.07 1013.95 1014.13 1014.66 1015.51 1016.63 1017.91 1019.24 1020.50 1021.60 1022.47 1023.09 1023.49 1023.69 1023.76 1023.78 1023.79 1023.82 1023.90 1024.00 1024.10 1024.17 1024.20 1024.14 1024.02 1023.84 1023.61 1023.38 1023.16 1022.98 1022.84 1022.74 1022.68 1022.62 1022.57
1015.05 1015.60 1016.03 1016.27 1016.27 1016.05 1015.64 1015.13 1014.62 1014.23 1014.06 1014.20 1014.66 1015.45 1016.50 1017.73 1019.02 1020.26 1021.36 1022.26 1022.95 1023.41 1023.70 1023.86 1023.95 1024.02 1024.10 1024.20 1024.30 1024.38 1024.42 1024.40 1024.32 1024.16 1023.95 1023.71 1023.46 1023.24 1023.06 1022.92 1022.82 1022.74 1022.67 1022.60
1015.58 1016.09 1016.47 1016.67 1016.65 1016.42 1016.00 1015.48 1014.97 1014.56 1014.36 1014.43 1014.82 1015.52 1016.46 1017.59 1018.79 1019.96 1021.03 1021.93 1022.65 1023.17 1023.54 1023.80 1023.98 1024.12 1024.25 1024.37 1024.48 1024.55 1024.56 1024.50 1024.37 1024.18 1023.95 1023.70 1023.45 1023.24 1023.06 1022.93 1022.83 1022.74 1022.66 1022.56
1016.27 1016.72 1017.04 1017.19 1017.13 1016.88 1016.46 1015.95 1015.43 1015.02 1014.79 1014.81 1015.11 1015.69 1016.50 1017.49 1018.56 1019.63 1020.63 1021.50 1022.23 1022.80 1023.24 1023.59 1023.86 1024.08 1024.27 1024.43 1024.55 1024.61 1024.59 1024.51 1024.35 1024.13 1023.88 1023.62 1023.38 1023.17 1023.00 1022.87 1022.77 1022.67 1022.56 1022.43
1017.01 1017.39 1017.64 1017.73 1017.64 1017.36 1016.94 1016.45 1015.95 1015.54 1015.29 1015.26 1015.47 1015.93 1016.61 1017.44 1018.36 1019.30 1020.20 1021.02 1021.73 1022.33 1022.84 1023.26 1023.62 1023.93 1024.18 1024.38 1024.52 1024.58 1024.56 1024.45 1024.27 1024.04 1023.78 1023.52 1023.28 1023.07 1022.90 1022.77 1022.65 1022.53 1022.39 1022.21
1017.71 1018.02 1018.20 1018.23 1018.09 1017.80 1017.39 1016.92 1016.45 1016.06 1015.80 1015.73 1015.88 1016.22 1016.76 1017.43 1018.20 1018.99 1019.78 1020.53 1021.21 1021.83 1022.38 1022.86 1023.30 1023.68 1024.00 1024.24 1024.41 1024.48 1024.46 1024.35 1024.16 1023.93 1023.67 1023.40 1023.17 1022.96 1022.78 1022.63 1022.48 1022.32 1022.13 1021.91
1018.27 1018.51 1018.62 1018.60 1018.43 1018.13 1017.74 1017.30 1016.87 1016.52 1016.28 1016.19 1016.28 1016.53 1016.94 1017.48 1018.09 1018.75 1019.42 1020.08 1020.71 1021.32 1021.88 1022.41 1022.90 1023.34 1023.71 1024.00 1024.20 1024.30 1024.29 1024.19 1024.02 1023.79 1023.54 1023.29 1023.05 1022.83 1022.64 1022.45 1022.25 1022.04 1021.79 1021.51
1018.62 1018.80 1018.86 1018.79 1018.60 1018.31 1017.95 1017.56 1017.19 1016.89 1016.68 1016.60 1016.66 1016.85 1017.16 1017.57 1018.05 1018.57 1019.12 1019.69 1020.26 1020.82 1021.38 1021.92 1022.43 1022.90 1023.30 1023.63 1023.86 1023.99 1024.01 1023.94 1023.80 1023.60 1023.38 1023.14 1022.90 1022.68 1022.45 1022.22 1021.97 1021.69 1021.37 1021.02
1018.75 1018.89 1018.91 1018.81 1018.61 1018.33 1018.02 1017.69 1017.39 1017.16 1017.01 1016.96 1017.01 1017.16 1017.40 1017.70 1018.06 1018.47 1018.90 1019.35 1019.83 1020.32 1020.83 1021.34 1021.84 1022.31 1022.72 1023.07 1023.33 1023.50 1023.56 1023.54 1023.44 1023.30 1023.11 1022.90 1022.68 1022.44 1022.19 1021.92 1021.61 1021.27 1020.88 1020.47
1018.69 1018.80 1018.79 1018.68 1018.49 1018.24 1017.98 1017.72 1017.50 1017.35 1017.26 1017.25 1017.32 1017.44 1017.63 1017.85 1018.11 1018.40 1018.71 1019.04 1019.41 1019.80 1020.22 1020.66 1021.11 1021.54 1021.94 1022.29 1022.57 1022.77 1022.89 1022.93 1022.90 1022.82 1022.70 1022.53 1022.34 1022.11 1021.84 1021.53 1021.17 1020.77 1020.32 1019.85
1018.52 1018.60 1018.58 1018.47 1018.29 1018.08 1017.87 1017.69 1017.55 1017.47 1017.45 1017.49 1017.58 1017.70 1017.84 1018.00 1018.16 1018.34 1018.52 1018.73 1018.96 1019.23 1019.53 1019.87 1020.24 1020.60 1020.97 1021.30 1021.59 1021.83 1022.01 1022.12 1022.18 1022.17 1022.12 1022.02 1021.86 1021.65 1021.38 1021.04 1020.64 1020.19 1019.70 1019.19
1018.30 1018.37 1018.34 1018.23 1018.08 1017.91 1017.76 1017.64 1017.57 1017.56 1017.61 1017.69 1017.80 1017.92 1018.03 1018.13 1018.20 1018.27 1018.33 1018.40 1018.49 1018.62 1018.79 1019.00 1019.26 1019.55 1019.85 1020.16 1020.46 1020.73 1020.97 1021.16 1021.31 1021.40 1021.43 1021.39 1021.28 1021.09 1020.82 1020.47 1020.04 1019.56 1019.02 1018.47
1018.11 1018.17 1018.13 1018.04 1017.91 1017.78 1017.67 1017.61 1017.61 1017.66 1017.75 1017.87 1017.99 1018.11 1018.19 1018.24 1018.24 1018.21 1018.16 1018.10 1018.05 1018.03 1018.06 1018.14 1018.28 1018.48 1018.72 1019.00 1019.30 1019.60 1019.90 1020.17 1020.40 1020.57 1020.68 1020.71 1020.65 1020.48 1020.21 1019.84 1019.39 1018.86 1018.29 1017.71
1018.00 1018.05 1018.01 1017.93 1017.82 1017.72 1017.66 1017.64 1017.68 1017.77 1017.90 1018.05 1018.19 1018.31 1018.37 1018.38 1018.32 1018.21 1018.06 1017.88 1017.71 1017.56 1017.46 1017.43 1017.46 1017.57 1017.75 1017.99 1018.28 1018.61 1018.95 1019.28 1019.58 1019.82 1019.99 1020.06 1020.02 1019.86 1019.57 1019.18 1018.68 1018.12 1017.51 1016.88
1018.00 1018.03 1018.00 1017.92 1017.83 1017.76 1017.72 1017.74 1017.82 1017.95 1018.11 1018.28 1018.43 1018.55 1018.60 1018.59 1018.50 1018.33 1018.11 1017.85 1017.59 1017.34 1017.13 1016.99 1016.93 1016.96 1017.08 1017.28 1017.56 1017.90 1018.26 1018.62 1018.96 1019.24 1019.43 1019.51 1019.46 1019.27 1018.95 1018.50 1017.94 1017.32 1016.65 1015.98
1018.11 1018.13 1018.09 1018.02 1017.95 1017.90 1017.89 1017.94 1018.04 1018.20 1018.39 1018.58 1018.76 1018.88 1018.95 1018.93 1018.83 1018.64 1018.39 1018.09 1017.76 1017.44 1017.16 1016.94 1016.80 1016.76 1016.82 1016.98 1017.23 1017.55 1017.90 1018.26 1018.59 1018.86 1019.03 1019.07 1018.98 1018.73 1018.33 1017.80 1017.17 1016.47 1015.73 1015.00
1018.30 1018.31 1018.27 1018.21 1018.16 1018.13 1018.15 1018.23 1018.37 1018.55 1018.77 1018.99 1019.20 1019.36 1019.45 1019.45 1019.36 1019.19 1018.93 1018.61 1018.26 1017.90 1017.56 1017.28 1017.08 1016.98 1016.97 1017.08 1017.27 1017.53 1017.84 1018.15 1018.43 1018.64 1018.75 1018.72 1018.53 1018.19 1017.69 1017.07 1016.34 1015.55 1014.74 1013.94
Thickness
5550 5555 5555 5551 5545 5546 5546 5545 5547 5545 5531 5531 5539 5543 5545 5540 5535 5535 5534 5532 5530 5529 5528 5526 5526 5526 5527 5528 5529 5531 5533 5534 5535 5537 5539 5542 5543 5542 5543 5544 5544 5546 5548 5550
5544 5541 5532 5526 5525 5527 5530 5532 5535 5528 5518 5519 5525 5532 5537 5532 5525 5522 5521 5519 5518 5517 5515 5513 5513 5514 5515 5516 5518 5519 5521 5522 5523 5524 5526 5529 5531 5532 5533 5533 5534 5535 5537 5539
5536 5523 5514 5514 5515 5517 5519 5522 5522 5516 5507 5506 5508 5532 5533 5522 5515 5510 5507 5505 5503 5502 5501 5501 5501 5502 5503 5505 5506 5507 5508 5509 5510 5512 5514 5516 5519 5520 5522 5523 5524 5525 5527 5529
5514 5503 5502 5506 5506 5505 5512 5502 5498 5494 5500 5510 5501 5523 5532 5516 5506 5501 5498 5495 5492 5490 5489 5488 5489 5490 5492 5492 5493 5493 5495 5496 5498 5500 5502 5505 5508 5510 5512 5512 5514 5515 5517 5520
5499 5490 5493 5495 5492 5489 5491 5481 5480 5480 5485 5488 5489 5491 5524 5501 5500 5495 5489 5484 5480 5477 5476 5476 5476 5477 5479 5479 5480 5481 5482 5484 5485 5488 5490 5493 5496 5497 5499 5500 5503 5505 5508 5511
5477 5472 5474 5476 5472 5471 5468 5469 5467 5467 5475 5486 5490 5489 5514 5500 5491 5485 5477 5471 5466 5463 5462 5463 5463 5464 5466 5466 5467 5468 5470 5471 5473 5475 5478 5481 5484 5485 5488 5490 5493 5495 5498 5501
5474 5466 5460 5459 5464 5461 5461 5471 5482 5484 5484 5498 5468 5472 5492 5482 5471 5464 5458 5455 5452 5450 5449 5450 5451 5451 5453 5454 5455 5456 5457 5459 5461 5463 5466 5469 5472 5474 5476 5479 5482 5484 5487 5491
5477 5475 5454 5449 5453 5454 5450 5457 5471 5479 5491 5493 5454 5468 5480 5457 5449 5443 5439 5438 5437 5437 5436 5436 5437 5438 5440 5441 5442 5443 5445 5447 5449 5452 5454 5458 5461 5463 5465 5468 5470 5473 5476 5480
5469 5463 5435 5433 5432 5439 5441 5445 5436 5443 5437 5447 5471 5463 5459 5448 5441 5434 5429 5426 5424 5424 5423 5423 5424 5425 5426 5427 5429 5430 5432 5435 5437 5439 5442 5446 5449 5452 5454 5457 5459 5462 5465 5469
5443 5439 5429 5421 5422 5419 5424 5426 5426 5432 5442 5459 5468 5459 5462 5442 5433 5425 5419 5414 5412 5411 5410 5410 5411 5412 5413 5414 5415 5416 5418 5422 5425 5427 5430 5434 5438 5440 5443 5445 5449 5452 5455 5457
5421 5426 5420 5416 5414 5421 5409 5408 5413 5420 5419 5438 5450 5461 5440 5427 5418 5411 5407 5402 5399 5398 5398 5398 5398 5399 5399 5400 5401 5403 5406 5409 5411 5414 5418 5422 5426 5428 5431 5435 5438 5441 5444 5447
5408 5418 5418 5411 5396 5391 5398 5403 5403 5413 5409 5404 5421 5437 5414 5407 5400 5394 5392 5389 5387 5384 5384 5384 5386 5387 5387 5388 5390 5392 5394 5397 5399 5402 5405 5409 5413 5416 5420 5424 5427 5430 5434 5436
5396 5402 5414 5416 5397 5381 5381 5381 5379 5382 5389 5395 5407 5424 5401 5393 5388 5381 5377 5376 5374 5372 5373 5374 5374 5376 5377 5378 5379 5381 5384 5385 5388 5390 5393 5397 5401 5404 5408 5412 5416 5419 5422 5425
5392 5394 5407 5424 5420 5395 5381 5372 5366 5371 5383 5392 5395 5405 5398 5387 5379 5373 5368 5364 5362 5362 5362 5364 5364 5365 5367 5367 5369 5370 5372 5374 5377 5379 5382 5386 5390 5393 5396 5399 5403 5407 5410 5414
5381 5386 5381 5382 5380 5377 5377 5373 5362 5361 5377 5381 5391 5383 5387 5375 5366 5360 5356 5354 5353 5354 5354 5354 5354 5356 5356 5357 5359 5361 5363 5365 5367 5370 5373 5376 5379 5382 5384 5388 5392 5395 5399 5403
5368 5370 5364 5365 5365 5360 5363 5369 5364 5359 5361 5364 5366 5372 5372 5360 5353 5350 5347 5345 5344 5345 5343 5342 5343 5344 5346 5347 5350 5353 5355 5356 5358 5361 5364 5366 5369 5372 5374 5378 5381 5385 5389 5392
5359 5354 5361 5375 5352 5353 5373 5370 5361 5358 5356 5354 5360 5365 5354 5347 5344 5340 5338 5335 5335 5334 5333 5332 5332 5333 5334 5336 5340 5343 5345 5347 5349 5352 5354 5357 5359 5362 5366 5369 5372 5375 5379 5383
5347 5348 5351 5356 5349 5362 5381 5352 5351 5347 5346 5341 5342 5342 5339 5334 5332 5330 5328 5325 5325 5324 5323 5322 5322 5323 5325 5327 5330 5334 5337 5338 5340 5343 5345 5348 5351 5353 5356 5359 5362 5366 5369 5373
5337 5340 5343 5346 5355 5368 5363 5346 5337 5335 5341 5336 5330 5329 5327 5321 5323 5329 5322 5317 5314 5312 5312 5312 5313 5314 5317 5320 5323 5325 5328 5331 5333 5335 5337 5339 5341 5344 5346 5350 5354 5357 5360 5365
5321 5326 5335 5333 5344 5359 5364 5335 5325 5327 5338 5331 5321 5318 5315 5312 5325 5330 5315 5308 5306 5304 5303 5304 5305 5307 5309 5312 5314 5316 5319 5322 5325 5327 5328 5330 5332 5335 5338 5341 5345 5348 5351 5356
5317 5318 5322 5327 5334 5351 5337 5317 5316 5332 5341 5320 5313 5309 5305 5305 5309 5306 5302 5299 5297 5296 5296 5296 5297 5299 5302 5304 5306 5309 5311 5313 5315 5317 5319 5321 5324 5326 5329 5333 5337 5340 5344 5348
5322 5322 5316 5319 5324 5338 5318 5311 5318 5325 5312 5307 5302 5298 5295 5294 5292 5291 5291 5289 5288 5288 5288 5288 5289 5292 5294 5296 5298 5301 5303 5305 5307 5309 5311 5314 5317 5319 5322 5326 5330 5333 5336 5340
5310 5317 5321 5320 5329 5318 5306 5307 5304 5299 5298 5297 5293 5288 5284 5283 5283 5282 5281 5280 5279 5279 5279 5280 5281 5283 5286 5288 5289 5291 5294 5296 5298 5301 5304 5307 5310 5312 5315 5319 5323 5325 5328 5333
5298 5289 5297 5300 5309 5303 5298 5294 5291 5288 5287 5285 5282 5279 5276 5274 5273 5273 5272 5272 5271 5271 5271 5271 5272 5275 5277 5279 5281 5282 5285 5287 5290 5293 5296 5299 5303 5306 5309 5312 5315 5317 5321 5324
5296 5284 5287 5290 5294 5292 5293 5289 5286 5281 5278 5275 5273 5270 5267 5265 5265 5264 5263 5263 5263 5263 5262 5262 5263 5265 5267 5270 5273 5274 5277 5279 5282 5285 5288 5291 5294 5298 5301 5305 5307 5309 5312 5315
5285 5280 5285 5298 5292 5287 5289 5283 5277 5273 5271 5268 5265 5262 5260 5258 5256 5256 5254 5254 5253 5253 5254 5254 5255 5256 5258 5261 5264 5266 5268 5270 5273 5276 5279 5282 5286 5289 5293 5297 5301 5302 5304 5307